Regional Weather Roundup
Issued by NWS

Home | Current Version | Previous Version | Text Only | Print | Product List | Glossary Off
Versions: 1 2 3 4 5 6 7 8 9 10 11 12 13 14 15 16 17 18 19 20 21 22 23 24 25 26 27

000
ASUS45 KTFX 270810
RWRMT
MONTANA REGIONAL WEATHER ROUNDUP
NATIONAL WEATHER SERVICE GREAT FALLS MT
200 AM MDT FRI MAY 27 2016

NOTE: "FAIR" INDICATES FEW OR NO CLOUDS BELOW 12000 FEET WITH NO
SIGNIFICANT WEATHER AND/OR OBSTRUCTIONS TO VISIBILITY.

MTZ001>007-043-270900-
WEST OF THE DIVIDE

CITY           SKY/WX    TMP DP  RH WIND       PRES   REMARKS
KALISPELL      CLOUDY    50  50 100 CALM      29.89F
MISSOULA       MOCLDY    48  45  89 CALM      29.94F
BUTTE          CLOUDY    39  36  89 SE6       29.98S
MULLAN PASS    CLOUDY    39  37  92 VRB3      29.97S
ANACONDA         N/A     46  41  81 W17G23    29.96S
DEER LODGE       N/A     46  46 100 CALM      29.97R
EUREKA           N/A     48  45  87 SE6       29.88S
HAMILTON         N/A     48  39  71 SE6       29.93F
LIBBY            N/A     46  43  87 CALM      29.89F
$$

MTZ008-052>055-270900-
SOUTHWEST MONTANA

CITY           SKY/WX    TMP DP  RH WIND       PRES   REMARKS
BOZEMAN        CLOUDY    43  40  89 SE9       29.93F
DILLON         MOCLDY    45  39  79 CALM      29.95S
W YELLOWSTONE  CLOUDY    32  32 100 CALM      30.02S FOG
ENNIS          MOCLDY    41  36  81 CALM      30.00F
$$

MTZ009-010-012-014-046-048-049-054-270900-
EAST SLOPES AND CENTRAL MONTANA

CITY           SKY/WX    TMP DP  RH WIND       PRES   REMARKS
CUT BANK       MOCLDY    45  44  97 SE6       29.87F
GREAT FALLS    PTCLDY    46  42  86 S6        29.90S
MALMSTROM AFB  CLOUDY    44  42  93 S5        29.90S
HELENA         CLOUDY    50  46  86 SW3       29.92S
CHOTEAU          N/A     46  45  93 S6        29.89F
$$

MTZ011-013-016-021-045-047-050-051-270900-
NORTH CENTRAL MONTANA

CITY           SKY/WX    TMP DP  RH WIND       PRES   REMARKS
HAVRE          CLEAR     50  48  93 CALM      29.87F
LEWISTOWN      CLEAR     42  38  85 CALM      29.92S
N BAR RANCH      N/A     41  39  93 W3        29.94F
CHINOOK          N/A     48  48 100 CALM      29.89F
$$

MTZ017>020-022>027-061-062-270900-
NORTHEAST MONTANA

CITY           SKY/WX    TMP DP  RH WIND       PRES   REMARKS
GLASGOW        MOCLDY    50  47  89 N8        29.86F
JORDAN           N/A     53  51  93 N10       29.85S
SIDNEY         CLEAR     50  47  89 N8        29.84S
WOLF POINT     MOCLDY    51  48  89 NE6       29.86F
POPLAR           N/A     52  48  87 N5        29.86S
$$

MTZ028>42-056>058-270900-
SOUTHCENTRAL AND SOUTHEAST MONTANA

CITY           SKY/WX    TMP DP  RH WIND       PRES   REMARKS
BAKER          CLEAR     43  40  89 NE3       29.86S
BILLINGS       CLEAR     49  44  83 SW3       29.91F
LIVINGSTON     CLOUDY    42  39  89 SW5       29.94S
MILES CITY     CLOUDY    51  47  86 SW6       29.86S
FORSYTH          N/A     50  48  93 SW3       29.87R
$$

REGIONAL REPORTS...DAKOTAS

CITY           SKY/WX    TMP DP  RH WIND       PRES   REMARKS
WILLISTON      CLEAR     50  48  93 N9        29.86S
MINOT          CLOUDY    57  54  89 SW5       29.82S
DICKINSON      CLEAR     40  38  93 S6        29.84R
BEACH            N/A     43  43 100 S7        29.89R
CROSBY         CLOUDY    50  50 100 NW7       29.89F
WATFORD CITY     N/A     45  45 100 CALM      29.86R
BISMARCK       CLEAR     47  47 100 CALM      29.83F
GRAND FORKS    CLOUDY    54  52  93 NW3       29.80R
FARGO          CLOUDY    58  55  90 E9        29.79F
BUFFALO SD       N/A     48  42  80 W5        29.80F
RAPID CITY     PTCLDY    50  42  74 N12       29.87S
$$

REGIONAL REPORTS...WYOMING/IDAHO/WASHINGTON

CITY           SKY/WX    TMP DP  RH WIND       PRES   REMARKS
GILLETTE       CLOUDY    46  43  89 S5        29.91F
SHERIDAN       CLOUDY    49  42  77 CALM      29.93R
BUFFALO WY     CLOUDY    45  38  76 W6        29.95S
CODY           CLEAR     43  37  81 S6        29.95R
YELLOWSTONE LA   N/A     31  29  92 CALM      30.08F
IDAHO FALLS    CLEAR     48  39  71 SW7       29.93F
SALMON         MOCLDY    52  39  62 CALM      29.92S
BOISE          PTCLDY    53  40  61 CALM      29.91R
SPOKANE        CLOUDY    50  40  68 S20G26    29.90S
$$

REGIONAL REPORTS...ALBERTA

CITY           SKY/WX    TMP DP  RH WIND       PRES   REMARKS
EDMONTON       CLOUDY    50  46  87 W6        29.79S
CALGARY        MOCLDY    52  45  76 N10       29.78F
LETHBRIDGE     CLOUDY    54  43  66 SW10      29.81F
MEDICINE HAT   CLOUDY    57  48  72 VRB2      29.83F
WATERTON GATE    N/A     48  37  66 SW12        N/A
CARDSTON         N/A     50  39  66 SW8         N/A
MILK RIVER       N/A     46  43  87 S6          N/A
ONEFOUR          N/A     50  46  87 E9          N/A
$$

REGIONAL REPORTS...SASKATCHEWAN

CITY           SKY/WX    TMP DP  RH WIND       PRES   REMARKS
SWIFT CURRENT  CLEAR     48  45  87 S7        29.89S
REGINA         MOCLDY    52  50  93 NW7       29.88S
SASKATOON      MOCLDY    55  50  82 W3        29.89S
VAL MARIE        N/A     41  39  93 E6          N/A
ROCKGLEN         N/A     46  45  93 N6          N/A
ASSINIBOIA       N/A     55  50  82 SE3         N/A
$$




USA.gov is the U.S. government's official web portal to all federal, state and local government web resources and services.